FW3914 Weather Reports


Display with metric or nautical units.
time (UTC)temp
F
wind
direction
speed
MPH
gust
MPH
rain 1hr
in
rain 24hr
in
rain mn
in
humidity
%
barometer
mb
20260508024902 65 180 0.0 1.0 0.00 0.00 0.00 73 1015.2
20260508024358 65 227 1.0 2.0 0.00 0.00 0.00 73 1015.6
20260508023855 65 208 0.0 2.0 0.00 0.00 0.00 72 1015.1
20260508023352 65 205 0.0 3.0 0.00 0.00 0.00 72 1015.2
20260508022848 65 202 0.0 2.0 0.00 0.00 0.00 72 1015.1
20260508022344 65 315 0.0 1.0 0.00 0.00 0.00 72 1014.9
20260508021841 65 230 0.0 1.0 0.00 0.00 0.00 72 1014.9
20260508021337 65 214 0.0 2.0 0.00 0.00 0.00 72 1015.0
20260508020833 65 230 0.0 1.0 0.00 0.00 0.00 73 1014.9
20260508020332 65 297 0.0 1.0 0.00 0.00 0.00 72 1015.0
20260508015828 65 322 0.0 1.0 0.00 0.00 0.00 72 1014.5
20260508015326 65 315 0.0 2.0 0.00 0.00 0.00 72 1015.1
20260508014822 65 190 0.0 2.0 0.00 0.00 0.00 71 1014.9
20260508014320 66 193 0.0 1.0 0.00 0.00 0.00 71 1014.8
20260508013815 66 193 2.0 4.0 0.00 0.00 0.00 70 1015.1
20260508013312 66 230 0.0 2.0 0.00 0.00 0.00 70 1015.1
20260508012809 66 212 0.0 3.0 0.00 0.00 0.00 69 1014.6
20260508012307 66 205 0.0 2.0 0.00 0.00 0.00 68 1014.8
20260508011804 66 172 0.0 3.0 0.00 0.00 0.00 68 1014.6
20260508011301 67 232 0.0 7.0 0.00 0.00 0.00 68 1014.8
20260508010758 67 219 0.0 5.0 0.00 0.00 0.00 67 1014.9
20260508010256 67 190 0.0 4.0 0.00 0.00 0.00 67 1014.9
20260508005753 67 307 0.0 4.0 0.00 0.00 0.00 66 1014.8
20260508005249 67 203 3.0 7.0 0.00 0.00 0.00 66 1014.7
20260508004745 68 227 2.0 6.0 0.00 0.00 0.00 66 1014.7
20260508004242 68 174 0.0 4.0 0.00 0.00 0.00 65 1014.9
20260508003738 68 299 0.0 7.0 0.00 0.00 0.00 65 1014.8
20260508003236 68 181 2.0 3.0 0.00 0.00 0.00 65 1014.7
20260508002732 69 210 3.0 4.0 0.00 0.00 0.00 65 1014.8
20260508002230 69 214 2.0 6.0 0.00 0.00 0.00 65 1014.9
20260508001725 69 204 3.0 5.0 0.00 0.00 0.00 64 1014.9
20260508001221 70 179 2.0 8.0 0.00 0.00 0.00 63 1014.8
20260508000717 69 291 2.0 5.0 0.00 0.00 0.00 64 1014.9
20260508000215 69 211 5.0 6.0 0.00 0.00 0.00 65 1014.9
20260507235711 69 242 1.0 7.0 0.00 0.00 0.00 64 1014.9
20260507235208 70 146 3.0 7.0 0.00 0.00 0.00 64 1014.8
20260507234705 70 232 3.0 7.0 0.00 0.00 0.00 64 1014.8
20260507234202 70 209 2.0 5.0 0.00 0.00 0.00 64 1014.9
20260507233658 70 152 2.0 5.0 0.00 0.00 0.00 63 1014.7
20260507233157 70 160 3.0 6.0 0.00 0.00 0.00 62 1014.6
20260507232653 71 249 1.0 6.0 0.00 0.00 0.00 62 1014.8
20260507232150 71 168 2.0 4.0 0.00 0.00 0.00 61 1014.9
20260507231647 72 198 3.0 5.0 0.00 0.00 0.00 60 1015.2
20260507231144 73 194 3.0 5.0 0.00 0.00 0.00 55 1015.0
20260507230640 73 25 0.0 4.0 0.00 0.00 0.00 53 1014.8
20260507230138 73 32 0.0 3.0 0.00 0.00 0.00 53 1014.9
20260507225637 73 36 2.0 5.0 0.00 0.00 0.00 52 1014.7
20260507225134 73 9 0.0 4.0 0.00 0.00 0.00 52 1014.9
20260507224629 73 37 0.0 4.0 0.00 0.00 0.00 50 1014.9
20260507224127 74 255 0.0 2.0 0.00 0.00 0.00 50 1015.0
20260507223623 73 250 1.0 4.0 0.00 0.00 0.00 52 1015.1
20260507223120 74 48 2.0 2.0 0.00 0.00 0.00 50 1015.1
20260507222617 73 5 0.0 3.0 0.00 0.00 0.00 50 1014.9
20260507222113 74 301 2.0 3.0 0.00 0.00 0.00 51 1015.1
20260507221609 74 107 0.0 3.0 0.00 0.00 0.00 50 1015.0
20260507221106 75 316 1.0 3.0 0.00 0.00 0.00 48 1015.0
20260507220603 75 121 0.0 3.0 0.00 0.00 0.00 48 1015.2
20260507220101 73 351 3.0 5.0 0.00 0.00 0.00 49 1014.8
20260507215556 74 348 2.0 4.0 0.00 0.00 0.00 49 1015.3
20260507215055 73 1 1.0 4.0 0.00 0.00 0.00 49 1014.9
20260507214551 73 97 2.0 4.0 0.00 0.00 0.00 49 1015.5
20260507214048 74 222 0.0 3.0 0.00 0.00 0.00 49 1015.3
20260507213544 74 119 1.0 5.0 0.00 0.00 0.00 50 1015.3
20260507213041 75 321 1.0 4.0 0.00 0.00 0.00 48 1015.3
20260507212537 74 46 2.0 4.0 0.00 0.00 0.00 49 1015.3
20260507212034 74 57 3.0 5.0 0.00 0.00 0.00 49 1015.6
20260507211531 74 23 0.0 3.0 0.00 0.00 0.00 50 1015.7
20260507211027 74 33 1.0 7.0 0.00 0.00 0.00 49 1015.3
20260507210524 75 0 1.0 5.0 0.00 0.00 0.00 48 1015.5
20260507210021 75 331 3.0 7.0 0.00 0.00 0.00 50 1015.6
20260507205518 75 323 0.0 5.0 0.00 0.00 0.00 49 1015.6
20260507205014 74 321 1.0 4.0 0.00 0.00 0.00 51 1015.5
20260507204510 74 69 1.0 6.0 0.00 0.00 0.00 50 1015.5
20260507204008 74 44 3.0 6.0 0.00 0.00 0.00 49 1015.8
20260507203506 74 42 5.0 5.0 0.00 0.00 0.00 49 1015.9
20260507203003 74 51 2.0 6.0 0.00 0.00 0.00 50 1016.0
20260507202458 74 233 1.0 4.0 0.00 0.00 0.00 51 1016.2
20260507201955 74 40 0.0 3.0 0.00 0.00 0.00 50 1016.0
20260507201450 75 0 3.0 6.0 0.00 0.00 0.00 48 1015.9
20260507200947 75 266 3.0 7.0 0.00 0.00 0.00 48 1016.4
20260507200442 75 351 3.0 8.0 0.00 0.00 0.00 48 1016.2
20260507195938 75 290 3.0 8.0 0.00 0.00 0.00 50 1016.2
20260507195436 75 269 0.0 4.0 0.00 0.00 0.00 49 1016.4
20260507194933 73 164 2.0 7.0 0.00 0.00 0.00 48 1016.5
20260507194430 75 28 3.0 9.0 0.00 0.00 0.00 47 1016.3
20260507193925 76 32 3.0 8.0 0.00 0.00 0.00 48 1016.4
20260507193423 75 21 4.0 17.0 0.00 0.00 0.00 48 1016.3
20260507192920 74 232 0.0 6.0 0.00 0.00 0.00 48 1016.7
20260507192416 73 351 2.0 9.0 0.00 0.00 0.00 50 1016.7
20260507191913 74 311 4.0 8.0 0.00 0.00 0.00 50 1016.7
20260507191409 74 1 4.0 7.0 0.00 0.00 0.00 50 1016.6
20260507190906 73 333 3.0 9.0 0.00 0.00 0.00 55 1017.0
20260507190403 73 5 5.0 9.0 0.00 0.00 0.00 50 1016.8
20260507185902 74 335 3.0 7.0 0.00 0.00 0.00 52 1016.9
20260507185359 74 341 2.0 8.0 0.00 0.00 0.00 51 1016.9
20260507184856 73 33 3.0 11.0 0.00 0.00 0.00 52 1016.9
20260507184354 72 336 1.0 9.0 0.00 0.00 0.00 53 1017.1
20260507183850 73 4 2.0 7.0 0.00 0.00 0.00 52 1017.0
20260507183347 73 342 2.0 8.0 0.00 0.00 0.00 54 1017.1
20260507182845 73 8 2.0 10.0 0.00 0.00 0.00 53 1017.4
20260507182341 71 346 2.0 7.0 0.00 0.00 0.00 54 1017.2
20260507181837 72 349 2.0 11.0 0.00 0.00 0.00 54 1017.5
20260507181333 71 41 4.0 8.0 0.00 0.00 0.00 55 1017.7
20260507180830 71 7 3.0 10.0 0.00 0.00 0.00 54 1017.8
20260507180327 72 218 3.0 7.0 0.00 0.00 0.00 55 1017.7
20260507175822 71 240 3.0 5.0 0.00 0.00 0.00 56 1017.9
20260507175320 70 258 1.0 10.0 0.00 0.00 0.00 58 1017.7
20260507174817 71 341 4.0 6.0 0.00 0.00 0.00 56 1017.8
20260507174315 70 349 2.0 7.0 0.00 0.00 0.00 56 1018.0
20260507173812 70 356 1.0 5.0 0.00 0.00 0.00 56 1017.9
20260507173309 70 53 8.0 10.0 0.00 0.00 0.00 55 1018.2
20260507172805 70 358 4.0 5.0 0.00 0.00 0.00 57 1018.4
20260507172306 69 117 0.0 6.0 0.00 0.00 0.00 57 1018.8
20260507171758 69 81 3.0 6.0 0.00 0.00 0.00 56 1018.6
20260507171255 69 289 3.0 5.0 0.00 0.00 0.00 59 1018.8
20260507170752 69 31 1.0 7.0 0.00 0.00 0.00 57 1019.0
20260507170248 70 310 1.0 2.0 0.00 0.00 0.00 57 1019.1
20260507165744 69 289 3.0 4.0 0.00 0.00 0.00 58 1019.1
20260507165240 68 46 3.0 6.0 0.00 0.00 0.00 60 1019.3
20260507164737 67 46 4.0 6.0 0.00 0.00 0.00 61 1019.3
20260507164234 68 35 3.0 5.0 0.00 0.00 0.00 60 1019.2
20260507163731 67 348 1.0 7.0 0.00 0.00 0.00 61 1019.6
20260507163229 67 333 1.0 7.0 0.00 0.00 0.00 63 1019.5
20260507162724 67 250 3.0 4.0 0.00 0.00 0.00 64 1019.4
20260507162221 67 0 3.0 4.0 0.00 0.00 0.00 61 1019.3
20260507161717 66 45 2.0 6.0 0.00 0.00 0.00 60 1019.6
20260507161214 68 6 0.0 5.0 0.00 0.00 0.00 61 1019.3
20260507160710 67 2 3.0 7.0 0.00 0.00 0.00 60 1019.4
20260507160207 69 62 3.0 6.0 0.00 0.00 0.00 58 1019.3
20260507155703 68 326 2.0 5.0 0.00 0.00 0.00 59 1019.6
20260507155159 68 0 1.0 5.0 0.00 0.00 0.00 60 1019.4
20260507154655 67 206 2.0 5.0 0.00 0.00 0.00 63 1019.4
20260507154153 66 23 3.0 4.0 0.00 0.00 0.00 63 1019.7
20260507153649 66 38 0.0 6.0 0.00 0.00 0.00 63 1019.6
20260507153146 66 297 3.0 7.0 0.00 0.00 0.00 66 1019.6
20260507152642 66 18 3.0 5.0 0.00 0.00 0.00 64 1019.7
20260507152138 65 44 2.0 6.0 0.00 0.00 0.00 66 1019.8
20260507151634 65 304 1.0 7.0 0.00 0.00 0.00 68 1019.8
20260507151132 65 32 0.0 6.0 0.00 0.00 0.00 67 1019.8
20260507150629 64 56 1.0 3.0 0.00 0.00 0.00 67 1019.8
20260507150125 64 17 4.0 5.0 0.00 0.00 0.00 67 1019.9
20260507145620 65 29 2.0 5.0 0.00 0.00 0.00 66 1019.9
20260507145118 66 31 0.0 4.0 0.00 0.00 0.00 66 1020.0
20260507144614 64 239 2.0 3.0 0.00 0.00 0.00 70 1020.0
20260507144113 63 14 3.0 6.0 0.00 0.00 0.00 70 1020.0
20260507143608 63 252 1.0 3.0 0.00 0.00 0.00 71 1020.2
20260507143106 62 329 0.0 4.0 0.00 0.00 0.00 71 1019.9
20260507142601 62 10 2.0 4.0 0.00 0.00 0.00 71 1020.0
20260507142058 63 25 2.0 6.0 0.00 0.00 0.00 70 1019.9
20260507141554 63 288 2.0 3.0 0.00 0.00 0.00 70 1020.2
20260507141051 63 40 2.0 2.0 0.00 0.00 0.00 72 1020.3
20260507140548 62 341 1.0 3.0 0.00 0.00 0.00 73 1020.3
20260507140046 62 263 1.0 3.0 0.00 0.00 0.00 74 1020.4
20260507135542 61 240 0.0 4.0 0.00 0.00 0.00 74 1020.5
20260507135040 61 260 1.0 3.0 0.00 0.00 0.00 76 1020.3
20260507134536 60 168 0.0 2.0 0.00 0.00 0.00 76 1020.5
20260507134032 60 3 0.0 3.0 0.00 0.00 0.00 77 1020.5
20260507133528 60 317 0.0 2.0 0.00 0.00 0.00 76 1020.3
20260507133026 60 312 2.0 3.0 0.00 0.00 0.00 77 1020.5
20260507132522 59 207 0.0 3.0 0.00 0.00 0.00 80 1020.4
20260507132019 59 118 1.0 3.0 0.00 0.00 0.00 81 1020.7
20260507131516 59 311 1.0 2.0 0.00 0.00 0.00 82 1020.3
20260507131013 58 126 2.0 4.0 0.00 0.00 0.00 83 1020.3
20260507130510 58 223 1.0 2.0 0.00 0.00 0.00 85 1020.4
20260507130009 58 235 1.0 3.0 0.00 0.00 0.00 85 1020.3
20260507125506 57 358 0.0 2.0 0.00 0.00 0.00 89 1020.3
20260507125003 55 310 0.0 2.0 0.00 0.00 0.00 92 1020.0
20260507124500 54 190 0.0 2.0 0.00 0.00 0.00 93 1020.1
20260507123958 54 310 0.0 2.0 0.00 0.00 0.00 93 1020.2
20260507123455 53 274 0.0 2.0 0.00 0.00 0.00 94 1020.2
20260507122951 53 355 0.0 2.0 0.00 0.00 0.00 95 1020.2
20260507122447 52 278 0.0 2.0 0.00 0.00 0.00 96 1020.1
20260507121943 52 209 0.0 2.0 0.00 0.00 0.00 96 1020.0
20260507121438 52 173 0.0 3.0 0.00 0.00 0.00 96 1020.0
20260507120935 51 223 0.0 1.0 0.00 0.00 0.00 96 1019.9
20260507120431 51 224 0.0 2.0 0.00 0.00 0.00 97 1019.8
20260507115928 51 168 0.0 2.0 0.00 0.00 0.00 97 1019.8
20260507115424 51 49 0.0 2.0 0.00 0.00 0.00 97 1019.7
20260507114920 51 219 0.0 2.0 0.00 0.00 0.00 97 1019.7
20260507114417 51 255 0.0 2.0 0.00 0.00 0.00 97 1019.6
20260507113914 51 204 1.0 1.0 0.00 0.00 0.00 97 1019.4
20260507113411 51 218 0.0 1.0 0.00 0.00 0.00 97 1019.5
20260507112908 51 238 1.0 3.0 0.00 0.00 0.00 97 1019.2
20260507112406 51 202 0.0 4.0 0.00 0.00 0.00 97 1019.2
20260507111904 51 269 0.0 2.0 0.00 0.00 0.00 97 1019.5
20260507111400 51 238 1.0 3.0 0.00 0.00 0.00 97 1019.1
20260507110856 51 193 0.0 2.0 0.00 0.00 0.00 97 1019.0
20260507110352 51 212 0.0 2.0 0.00 0.00 0.00 97 1018.8
20260507105849 51 172 0.0 2.0 0.00 0.00 0.00 97 1018.8
20260507105346 51 216 2.0 2.0 0.00 0.00 0.00 97 1018.8
20260507104843 51 210 0.0 2.0 0.00 0.00 0.00 97 1018.8
20260507104339 51 209 0.0 1.0 0.00 0.00 0.00 97 1018.7
20260507103835 51 233 0.0 2.0 0.00 0.00 0.00 97 1018.5
20260507103332 51 186 0.0 2.0 0.00 0.00 0.00 97 1018.3
20260507102828 51 192 1.0 2.0 0.00 0.00 0.00 97 1018.4
20260507102325 51 218 0.0 1.0 0.00 0.00 0.00 96 1018.4
20260507101821 51 211 0.0 2.0 0.00 0.00 0.00 96 1018.4
20260507101316 51 246 0.0 1.0 0.00 0.00 0.00 96 1018.0
20260507100813 51 335 0.0 1.0 0.00 0.00 0.00 96 1018.1
20260507100311 52 222 0.0 2.0 0.00 0.00 0.00 96 1018.3
20260507095809 52 204 0.0 2.0 0.00 0.00 0.00 96 1018.0
20260507095306 52 153 0.0 3.0 0.00 0.00 0.00 95 1018.1
20260507094803 52 255 0.0 3.0 0.00 0.00 0.00 96 1018.0
20260507094259 52 66 1.0 2.0 0.00 0.00 0.00 95 1017.9
20260507093756 52 174 0.0 2.0 0.00 0.00 0.00 95 1018.1
20260507093255 52 6 0.0 3.0 0.00 0.00 0.00 95 1017.8
20260507092752 52 342 0.0 2.0 0.00 0.00 0.00 95 1017.9
20260507092248 52 237 1.0 2.0 0.00 0.00 0.00 95 1017.9
20260507091745 52 0 0.0 2.0 0.00 0.00 0.00 95 1017.9
20260507091242 52 218 1.0 2.0 0.00 0.00 0.00 95 1017.9
20260507090737 52 326 0.0 2.0 0.00 0.00 0.00 95 1017.7
20260507090234 52 175 0.0 2.0 0.00 0.00 0.00 95 1017.8
20260507085731 53 19 0.0 2.0 0.00 0.00 0.00 94 1017.9
20260507085228 53 185 0.0 1.0 0.00 0.00 0.00 94 1017.7
20260507084725 53 24 0.0 2.0 0.00 0.00 0.00 94 1017.6
20260507084221 53 161 1.0 2.0 0.00 0.00 0.00 94 1017.7
20260507083719 53 233 0.0 2.0 0.00 0.00 0.00 94 1017.7
20260507083215 53 191 1.0 2.0 0.00 0.00 0.00 93 1017.6
20260507082711 54 207 1.0 2.0 0.00 0.00 0.00 93 1017.8
20260507082207 54 194 0.0 2.0 0.00 0.00 0.00 92 1017.8
20260507081704 54 94 1.0 2.0 0.00 0.00 0.00 92 1017.7
20260507081200 55 279 0.0 3.0 0.00 0.00 0.00 91 1017.6
20260507080657 55 307 3.0 4.0 0.00 0.00 0.00 90 1017.5
20260507080153 55 275 2.0 3.0 0.00 0.00 0.00 89 1017.5
20260507075648 55 304 1.0 2.0 0.00 0.00 0.00 88 1017.4
20260507075145 55 287 0.0 4.0 0.00 0.00 0.00 87 1017.2
20260507074641 56 26 1.0 3.0 0.00 0.00 0.00 86 1017.5
20260507074140 56 269 0.0 6.0 0.00 0.00 0.00 86 1017.2
20260507073636 56 291 1.0 7.0 0.00 0.00 0.00 87 1017.4
20260507073132 56 30 4.0 5.0 0.00 0.00 0.00 87 1017.4
20260507072630 56 358 1.0 4.0 0.00 0.00 0.00 87 1017.3
20260507072127 56 64 2.0 7.0 0.00 0.00 0.00 87 1017.4
20260507071625 56 28 0.0 3.0 0.00 0.00 0.00 87 1017.4
20260507071121 56 299 1.0 5.0 0.00 0.00 0.00 86 1017.4
20260507070618 56 29 3.0 6.0 0.00 0.00 0.00 86 1017.5
20260507070115 56 20 2.0 9.0 0.00 0.00 0.00 86 1017.5
20260507065611 56 292 0.0 4.0 0.00 0.00 0.00 86 1017.3
20260507065108 56 57 2.0 8.0 0.00 0.00 0.00 86 1017.3
20260507064606 56 348 0.0 6.0 0.00 0.00 0.00 86 1017.3
20260507064105 56 217 0.0 2.0 0.00 0.00 0.00 86 1017.1
20260507063601 56 9 2.0 7.0 0.00 0.00 0.00 86 1017.3
20260507063059 56 33 4.0 5.0 0.00 0.00 0.00 86 1017.0
20260507062555 56 350 3.0 6.0 0.00 0.00 0.00 86 1017.3
20260507062053 56 285 0.0 4.0 0.00 0.00 0.00 86 1017.1
20260507061550 57 208 2.0 4.0 0.00 0.00 0.00 85 1017.0
20260507061048 57 2 3.0 7.0 0.00 0.00 0.00 85 1017.1
20260507060546 57 77 3.0 6.0 0.00 0.00 0.00 85 1017.0
20260507060042 57 0 3.0 6.0 0.00 0.00 0.00 85 1016.9
20260507055542 57 51 2.0 6.0 0.00 0.00 0.00 84 1017.0
20260507055039 57 30 4.0 8.0 0.00 0.00 0.00 84 1017.1
20260507054535 57 95 3.0 7.0 0.00 0.00 0.00 84 1017.0
20260507054032 57 4 3.0 10.0 0.00 0.00 0.00 84 1017.0
20260507053530 57 47 2.0 6.0 0.00 0.00 0.00 84 1017.1
20260507053029 57 246 1.0 6.0 0.00 0.00 0.00 83 1017.0
20260507052526 57 0 1.0 10.0 0.00 0.00 0.00 83 1017.1
20260507052022 58 61 3.0 9.0 0.00 0.00 0.00 83 1017.1
20260507051520 58 359 2.0 5.0 0.00 0.00 0.00 84 1017.1
20260507051017 58 53 3.0 9.0 0.00 0.00 0.00 85 1017.1
20260507050513 58 71 3.0 6.0 0.00 0.00 0.00 85 1017.2
20260507050010 58 14 3.0 5.0 0.00 0.01 0.01 85 1017.1
20260507045507 58 58 3.0 6.0 0.00 0.01 0.01 85 1017.1
20260507045004 58 36 2.0 6.0 0.00 0.01 0.01 84 1017.3
20260507044501 58 43 5.0 9.0 0.00 0.01 0.01 83 1017.0
20260507043957 58 324 2.0 6.0 0.00 0.01 0.01 83 1017.2
20260507043453 58 58 1.0 6.0 0.00 0.01 0.01 83 1017.2
20260507042950 59 38 3.0 7.0 0.00 0.01 0.01 83 1017.4
20260507042447 59 23 2.0 4.0 0.00 0.01 0.01 83 1017.4
20260507041942 59 4 4.0 8.0 0.00 0.01 0.01 83 1017.4
20260507041439 59 14 5.0 8.0 0.00 0.01 0.01 83 1017.6
20260507040936 59 0 2.0 7.0 0.00 0.01 0.01 82 1017.4
20260507040432 59 49 2.0 8.0 0.00 0.01 0.01 83 1017.5
20260507035928 59 248 2.0 5.0 0.00 0.01 0.01 83 1017.8
20260507035425 59 338 3.0 5.0 0.00 0.01 0.01 83 1017.8
20260507034921 59 358 2.0 6.0 0.00 0.01 0.01 83 1017.6
20260507034418 59 54 3.0 6.0 0.00 0.01 0.01 83 1017.6
20260507033916 59 302 1.0 7.0 0.00 0.01 0.01 83 1017.8
20260507033414 59 238 2.0 5.0 0.00 0.01 0.01 83 1017.5
20260507032911 59 33 2.0 6.0 0.00 0.01 0.01 83 1017.2
20260507032408 59 22 3.0 7.0 0.00 0.01 0.01 83 1017.6
20260507031904 59 359 3.0 7.0 0.00 0.01 0.01 83 1017.2
20260507031401 59 300 2.0 7.0 0.00 0.01 0.01 83 1017.5
20260507030857 59 24 3.0 8.0 0.00 0.01 0.01 83 1017.3
20260507030355 59 14 2.0 4.0 0.00 0.01 0.01 84 1017.0
20260507025851 59 3 2.0 6.0 0.00 0.01 0.01 83 1016.9